Location: Austin
(30.3000°N, 97.7500°W)
Time: 11:28:42
(UTC-05:00)

Daily predictions for brighter satellites

Satellite Brightness Start Highest point End
(mag) Time Altitude Azimuth Time Altitude Azimuth Time Altitude Azimuth
Cosmos 1656 3.8 20:36:56 10° NNW 20:42:31 64° ENE 20:47:58 10° SSE
USA 234 3.3 20:38:19 10° NE 20:44:51 67° SE 20:51:22 10° SSW
Cosmos 1184 Rocket 3.2 20:42:53 10° SSE 20:46:05 43° E 20:49:17 10° NNE
YAOGAN 6 3.8 20:42:59 10° SE 20:46:05 26° ENE 20:49:12 10° NNE
DNEPR-1 R/B 3.6 20:43:10 10° S 20:47:11 50° ESE 20:51:26 10° NE
Cosmos 1697 Rocket 3.1 20:45:01 10° N 20:50:27 46° ENE 20:55:50 10° SE
Cosmos 1500 4.4 20:51:58 10° NNE 20:55:12 25° E 20:58:26 10° SE
Cosmos 1802 Rocket 4.0 20:49:10 10° S 20:55:24 72° E 21:01:46 10° N
Cosmos 1674 Rocket 3.8 20:52:32 10° SSE 20:56:48 49° E 21:01:07 10° NNE
ATLAS CENTAUR R/B 3.4 20:53:56 10° S 20:58:17 50° ESE 21:10:00 10° NE
Cosmos 44 Rocket 3.9 20:53:57 10° NNW 20:58:59 48° ENE 21:03:59 10° SE
COSMOS 2487 2.4 20:55:54 10° S 20:59:21 66° ESE 21:02:50 10° NNE
Cosmos 1271 Rocket 4.3 20:57:02 10° NNW 21:00:42 37° W 21:04:18 10° SSW
Cosmos 1777 Rocket 4.1 20:56:21 10° N 21:01:29 60° ENE 21:06:35 10° SSE
Envisat 3.0 20:56:31 10° SSE 21:01:35 88° E 21:06:41 10° NNW
Okean 1 4.4 20:58:13 10° SSE 21:01:39 27° E 21:05:05 10° NNE
Cosmos 1980 Rocket 3.1 20:58:06 10° N 21:03:09 32° ENE 21:07:51 11° SE
Okean 2 Rocket 3.5 21:00:23 10° NNW 21:04:46 65° W 21:09:10 10° S
Meteor 1-11 Rocket 4.3 20:59:45 10° NNW 21:05:15 62° W 21:10:50 10° S
Cosmos 1939 Rocket 3.3 21:01:55 10° SSE 21:05:47 44° ENE 21:09:44 10° N
Cosmos 1812 2.9 21:02:13 10° S 21:06:01 74° W 21:09:52 10° N
CENTAUR R/B 3.6 21:03:38 10° SE 21:07:14 17° ESE 21:11:02 10° ENE
Delta 142 4.5 21:01:35 10° WSW 21:09:00 67° S 21:14:34 10° E
Lacrosse 4 Rocket 4.2 21:07:16 10° WNW 21:10:07 17° WSW 21:12:57 10° SW
ERS-2 2.7 21:08:41 11° SE 21:12:00 40° ENE 21:15:28 10° N
Meteor 1-18 Rocket 4.5 21:07:16 10° S 21:12:51 54° E 21:18:34 10° NNE
Okean 3 3.4 21:10:40 10° S 21:14:57 77° E 21:19:14 10° N
Resurs 01 Rocket 2.0 21:11:53 11° SE 21:15:54 44° ENE 21:20:06 10° N
ISS -1.2 21:14:26 10° W 21:17:10 24° NW 21:19:55 10° NNE
Thor Agena Rocket 3.7 21:11:59 10° NNE 21:17:15 83° WNW 21:22:27 10° SSW
ATLAS 3B R/B 3.2 21:11:15 10° SW 21:18:29 68° WNW 21:25:29 10° NNE
Cosmos 304 Rocket 3.7 21:15:44 10° S 21:20:30 76° ESE 21:25:20 10° NNE
BREEZE-M DEB (TANK) 3.8 21:22:49 10° N 21:24:05 12° NNE 21:25:08 10° NE
EPKM 3.1 21:16:25 10° WSW 21:25:01 47° S 21:26:54 21° ESE
Abrixas rocket 3.6 21:23:36 10° WSW 21:26:39 40° NW 21:29:43 10° NE
Cosmos 1864 Rocket 4.4 21:23:07 10° S 21:29:17 82° E 21:35:26 10° N
Cosmos 44 4.3 21:27:15 10° NW 21:32:26 49° WSW 21:37:37 10° S
Cosmos 2084 3.6 21:28:36 10° SSW 21:32:55 50° ESE 21:37:01 10° NE
Cosmos 2151 Rocket 4.3 21:31:24 10° NNW 21:35:44 53° W 21:40:01 10° S
Spot 2 Rocket 3.5 21:36:54 19° SSE 21:40:32 64° ENE 21:45:31 10° N
Tiangong 2 3.7 21:39:04 10° WNW 21:41:32 21° NNW 21:44:01 10° NNE
Cosmos 1300 Rocket 3.8 21:37:47 10° NNW 21:42:07 67° W 21:46:12 11° S
GPS 2-04 Rocket1 3.1 21:38:22 10° WNW 21:42:34 63° NNE 21:44:56 25° E
Cosmos 468 Rocket 3.9 21:40:25 10° S 21:45:41 78° ESE 21:50:57 10° NNE
Timation 2 Rocket 3.8 21:39:54 10° SSW 21:45:51 80° ESE 21:51:52 10° NNE
NOAA 11 4.1 21:42:36 18° SSE 21:46:41 75° ENE 21:52:09 10° N
USA 186 3.6 21:45:11 10° SSW 21:47:53 29° W 21:50:45 10° NW
Cosmos 2322 Rocket 3.4 21:48:42 10° N 21:53:18 25° ENE 21:55:00 22° E
Delta 7925 Rocket 3.3 21:49:50 10° WSW 21:54:21 53° S 21:55:55 36° ESE
ARGOS 3.8 21:53:02 28° ESE 21:55:01 38° ENE 21:59:58 10° N
Cosmos 1763 Rocket 3.6 21:50:36 13° S 21:55:13 56° ESE 22:00:24 10° NNE
FUSE 4.3 21:52:10 10° WSW 21:57:14 46° S 21:58:53 35° SE
Cosmos 841 Rocket 3.9 21:57:37 33° SE 21:59:00 39° E 22:03:53 10° NNE
Delta 168 3.5 21:57:36 10° WSW 21:59:56 27° SSW 21:59:56 27° SSW
SL-16 R/B 3.1 21:56:20 10° N 22:01:22 32° ENE 22:02:55 28° E
ATLAS CENTAUR R/B 1.9 22:00:47 10° NNW 22:05:25 68° WSW 22:07:22 35° S
Cosmos 1975 2.7 22:03:15 10° N 22:07:17 85° E 22:08:17 50° S
Atlas Centaur 2 0.7 22:04:31 10° W 22:08:15 84° S 22:08:30 76° ESE
Meteor 1-19 Rocket 4.4 22:15:51 14° SSW 22:20:59 75° W 22:26:55 10° N
H-2A R/B 2.0 22:22:16 51° ESE 22:22:52 55° ENE 22:27:43 10° N
MetOp-B 4.1 22:27:02 55° SE 22:28:05 69° ENE 22:33:24 10° N
ERS-1 Rocket 3.2 22:27:52 49° E 22:28:10 50° ENE 22:33:00 10° N
Meteor 1-12 Rocket 4.4 22:22:31 10° N 22:28:29 78° W 22:30:59 37° S
SPOT 5 4.1 22:30:59 25° NE 22:30:59 25° NE 22:33:54 10° NNE
Cosmos 1455 Rocket 3.8 22:26:47 10° N 22:30:11 40° NE 22:30:11 40° NE
Cosmos 1814 Rocket 4.3 22:29:01 16° SSW 22:33:12 64° WNW 22:38:27 10° N
Cosmos 1898 Rocket 3.4 22:28:04 10° NNW 22:33:24 86° ENE 22:34:14 64° SSE
SL-08 RB Rocket 3.5 22:33:23 73° ENE 22:33:24 73° ENE 22:37:55 10° N
Cosmos 1975 Rocket 4.3 22:32:17 20° SW 22:34:46 38° W 22:38:49 10° NNW
DMSP B5D2-2 4.0 22:32:50 10° NNE 22:38:06 67° ESE 22:38:16 67° ESE
Cosmos 1242 Rocket 3.5 22:36:52 10° NNW 22:39:54 46° WNW 22:39:54 46° WNW
Cosmos 2360 Rocket 3.3 22:39:36 10° N 22:44:22 29° ENE 22:44:22 29° ENE
Terra 3.7 22:46:26 19° NE 22:46:26 19° NE 22:48:43 10° NNE
Cosmos 1666 4.2 22:42:06 10° NNW 22:45:34 32° W 22:45:53 31° WSW
Cosmos 1980 Rocket 3.9 22:42:20 10° NW 22:46:55 26° WSW 22:49:39 18° SW
Meteor 1-23 Rocket 4.0 22:48:56 75° ESE 22:49:03 75° E 22:54:37 10° NNE
Resurs 01 Rocket 4.4 22:51:04 10° WSW 22:52:31 11° W 22:53:58 10° WNW
Cosmos 1743 4.4 22:49:26 10° NNW 22:52:43 27° W 22:52:47 27° W
Meteor 2-20 4.4 22:47:19 10° N 22:53:28 79° W 22:54:40 59° SSW
Gbstr 26 Del rocket 4.4 22:45:32 10° NW 22:53:44 83° NE 22:55:38 57° SE
Meteor 2-9 Rocket 4.0 22:49:36 10° N 22:54:57 79° W 22:55:16 75° SW
Cosmos 990 Rocket 3.9 22:50:27 10° NNW 22:55:37 82° W 22:55:37 82° W
CENTAUR R/B 3.1 22:51:28 10° SW 22:57:03 53° WNW 23:03:25 10° NNE
Meteor 2-20 Rocket 4.3 22:51:03 10° N 22:57:13 83° E 22:57:44 75° SSE
Cosmos 1544 Rocket 4.1 22:53:36 10° N 22:57:09 57° NNW 22:57:09 57° NNW
Helios 1A 4.2 22:59:34 37° N 22:59:34 37° N 23:02:12 10° N
Delta 142 4.4 22:56:15 10° W 23:01:20 56° WSW 23:01:20 56° WSW
Mugunghwa Rocket 4.3 22:56:00 10° WSW 23:03:29 67° S 23:04:17 63° SE
Cosmos 2150 Rocket 4.1 23:00:01 10° NNW 23:04:49 71° N 23:04:49 71° N
BREEZE-M DEB (TANK) 4.2 23:05:22 10° NW 23:07:06 38° WNW 23:07:06 38° WNW
SJ 16-02 3.2 23:10:03 10° N 23:12:06 23° NNE 23:12:06 23° NNE
Nadezhda 4 Rocket 4.2 23:14:30 10° N 23:20:05 61° NE 23:20:05 61° NE
CZ-2C R/B 4.3 23:31:43 36° NNE 23:31:43 36° NNE 23:35:18 10° N
Cosmos 2322 4.4 23:26:57 10° N 23:31:17 46° NNE 23:31:17 46° NNE
Cosmos 2322 Rocket 3.4 23:32:20 10° NW 23:36:49 32° W 23:36:49 32° W
SL-16 R/B 3.8 23:40:38 10° NW 23:44:49 26° W 23:44:49 26° W
